Regional Weather Roundup
Issued by NWS

Home | Current Version | Previous Version | Text Only | Print | Product List | Glossary On
Versions: 1 2 3 4 5 6 7 8 9 10 11 12 13 14 15 16 17 18 19 20 21 22 23 24 25 26 27 28 29 30 31 32 33 34 35 36 37 38 39 40 41 42 43 44 45 46 47 48 49 50
000
ASHW40 PHFO 090343
RWRHI

WEATHER ROUNDUP FOR HAWAII
NATIONAL WEATHER SERVICE HONOLULU HI
500 PM HST MON FEB 08 2016

THIS IS AN AUTOMATED REPORT THAT HAS NOT BEEN QUALITY CONTROLLED.

NOTE..."FAIR" INDICATES FEW OR NO CLOUDS BELOW 12,000 FEET WITH NO
SIGNIFICANT WEATHER AND/OR OBSTRUCTIONS TO VISIBILITY.

* - THESE SITES REPORT LIMITED FIELDS

HIZ001>004-090400-
KAUAI-NIIHAU-

CITY           SKY/WX    TMP DP  RH WIND       PRES   REMARKS
LIHUE APT      SUNNY     74  52  46 NE14      29.98S
PORT ALLEN*      N/A     75 N/A N/A SW8         N/A
POIPU*           N/A     75 N/A N/A E3G9        N/A
PRINCEVILLE*     N/A     72 N/A N/A NW5         N/A
KOKOLE POINT*  NOT AVBL
MOLOAA DAIRY*    N/A     75  54  46 N2G9        N/A
WAIMEA HTS*      N/A     73  50  43 S5G12       N/A
PUU OPAE*        N/A     66  50  55 SE6G12      N/A
PUU LUA*       NOT AVBL
MAKAHA RIDGE*    N/A     66  52  59 NE2G10      N/A
$$

HIZ005>011-090400-
OAHU-

CITY           SKY/WX    TMP DP  RH WIND       PRES   REMARKS
HONOLULU       MOSUNNY   75  54  47 SW9       29.95R
KALAELOA       SUNNY     74  55  51 SW8       29.96R
KANEOHE MCB    CLOUDY    72  54  53 N8        29.95R
WHEELER FIELD  FAIR      70  55  57 NW10      29.95R
BELLOWS*         N/A    N/A N/A N/A N8          N/A
KAHUKU*          N/A    N/A N/A N/A VRB2        N/A
WHEELER*         N/A    N/A N/A N/A N8G14       N/A
WAIANAE HARBOR   N/A    N/A N/A N/A NW8G17      N/A
DILLINGHAM*      N/A     75  54  46 MISG        N/A
KAHUKU TRN*      N/A     70  52  52 NE5G12      N/A
KAWAILOA*        N/A     68  52  56 NE7G13      N/A
KII*             N/A     73  55  53 VRB6G12     N/A
MAKUA RANGE*     N/A     73  54  49 NE10G20     N/A
OAHU FOREST NW NOT AVBL
SCHOFIELD BRK*   N/A     72  55  56 MISG        N/A
SCHOFIELD S*   NOT AVBL
WAIANAE VLY*   NOT AVBL
KUAOKALA*      NOT AVBL
HONOULIUULI*   NOT AVBL
MOKUOLOE IS*   NOT AVBL
PALEHUA*         N/A     64  52  63 NE3G9       N/A
WAIAWA PHB*    NOT AVBL
$$

HIZ012>013-090400-
MOLOKAI-

CITY           SKY/WX    TMP DP  RH WIND       PRES   REMARKS
MOLOKAI AIRPT  SUNNY     72  50  45 N13       29.97R
KALAUPAPA      NOT AVBL
MAKAPULAPAI*     N/A     73  52  46 NE7G13      N/A
MOLOKAI 1*     NOT AVBL
PUU ALII*        N/A     55  50  82 W1          N/A
$$

HIZ016-090400-
KAHOOLAWE-

CITY           SKY/WX    TMP DP  RH WIND       PRES   REMARKS
KAHOOLAWE*       N/A     68 N/A N/A NE1         N/A
HAKIOAWA*        N/A     69  55  60 MISG      30.38R
HONOKANAIA*      N/A     79  56  44 W8G26     29.88R
KANELOA*         N/A     72  54  53 NE9G17    30.01
KEALIALALO*      N/A     70  52  52 NE9G17    29.96R
LUA MAKIKA*    NOT AVBL
$$

HIZ014>015-090400-
LANAI-

CITY           SKY/WX    TMP DP  RH WIND       PRES   REMARKS
LANAI CITY     FAIR      70  53  54 S8        29.99R
LANAI 1*       NOT AVBL
$$

HIZ017>028-090400-
MAUI-

CITY           SKY/WX    TMP DP  RH WIND       PRES   REMARKS
KAHULUI        MOSUNNY   74  53  48 N10       29.97R
KAPALUA-W MAUI MOSUNNY   72  50  46 N14G26    29.96
HANA AIRPORT   CLOUDY    70  32  24 N5        30.02R
HANA*            N/A     73 N/A N/A N5          N/A
HALEAKALA SUMM   N/A     52   9  17 SW7         N/A
MAALAEA BAY*     N/A     73 N/A N/A NE10G18     N/A
HALEAKALA*     NOT AVBL
KAUPO GAP*       N/A     64  59  82 W1G9        N/A
KULA 1*          N/A    N/A N/A N/A W5          N/A
$$

HIZ023>026-090400-
BIG ISLAND OF HAWAII COAST AND LOWER SLOPES-

CITY           SKY/WX    TMP DP  RH WIND       PRES   REMARKS
KAILUA KONA    NOT AVBL
HILO           MOSUNNY   77  55  46 NE7       29.95R
HONOKAA*         N/A     68 N/A N/A VRB1        N/A
KAWAIHAE MWT*    N/A     82 N/A N/A SW6         N/A
KAWAIHAE*        N/A     77 N/A N/A SW5       29.92R
SOUTH POINT*     N/A     72 N/A N/A N16G24      N/A
UPOLU AIRPORT*   N/A    N/A N/A N/A NE15        N/A
KAMUELA*       MOCLDY    61  54  77 NE9       30.03R
HAKALAU*         N/A     61  52  72 NE3         N/A
KALOKO-HONOKO*   N/A     75  57  53 W5        29.92
PALI 2*          N/A     63  54  72 SE10G18     N/A
KEALAKOMO*       N/A     75  57  53 E20G30      N/A
KAUPULEHU*       N/A     72  55  56 W8G16       N/A
KAPAPALA*        N/A     67  55  66 E6G12       N/A
LOWER KAHUKU*    N/A     64 -38   1 NE3G13      N/A
PUHE CS*         N/A     81  55  41 SW3G12      N/A
PUHO CS*         N/A     77  59  53 SW3         N/A
PTA KEAMUKU*     N/A     64  50  59 CALM        N/A
WAIKOLOA*        N/A     73  54  49 NW6G12      N/A
$$

HIZ027>028-090400-
BIG ISLAND OF HAWAII INTERIOR AND SUMMMITS-

CITY           SKY/WX    TMP DP  RH WIND       PRES   REMARKS
BRADSHAW FIELD MOSUNNY   60  47  62 W8        30.18R
MK VISITOR CEN   N/A     54  27  35 W6          N/A
MAUNA KEA*       N/A     41   7  24 NW2         N/A
MAUNA LOA*       N/A    N/A N/A N/A MISG        N/A
MAUNA LOA 1*   NOT AVBL
PTA KIPUKA*      N/A     63  48  59 VRB7G13     N/A
PTA RANGE 17*    N/A     68  55  64 NW9G16      N/A
PTA WEST*        N/A     66  57  72 NW8G17      N/A
NENE CABIN*      N/A    N/A N/A N/A S3          N/A
AHUMOA*          N/A     58  50  76 NW3G10      N/A
PTA PORTABLE*  NOT AVBL
PUU MALI*        N/A     61  45  55 VRB3G9      N/A
$$

HIC003-090400-
NORTHWEST ISLANDS-

CITY           SKY/WX    TMP DP  RH WIND       PRES   REMARKS
MIDWAY ISLAND  LGT RAIN  63  63 100 NW9       30.01S FOG
MIDWAY NOS*      N/A     64 N/A N/A MISG      29.99S
FRENCH FRIGATE NOT AVBL
$$

PHZ110>124-180-090400-
BUOY REPORTS

STATION/POSITION TIME  TEMP    WIND        PRES    WAVE   SWELL
                       AIR SEA DIR/SP/G            HT/PER HT/DIR
                 (UTC) (F)     (DEG/KT/KT) (MB)    (FT/S) (FT/D)
BUOY 51001       0300   70 75  240/ 14/ 17 1014.5R
BUOY 51101       0250   70 75  250/ 14/ 17 1014.5R  12/14  11/330
BUOY 51100       NOT AVBL
BUOY 51002       0250   76 78   90/ 17/ 21 1012.0R  10/11   8/350
BUOY 51003       0250   73 78   40/ 12/ 17 1013.8R   9/11   8/340
BUOY 51004       0250   75 77   60/ 16/ 19 1012.6R  11/12  10/330
BARBERS PT BUOY  NOT AVBL
WAIMEA BAY BUOY  0204      78                N/A     8/12   7/330
KAILUA BAY BUOY  0211      77                N/A     9/13   7/350
LANAI BUOY       NOT AVBL
BARBERS PT 2     0303      77                N/A     6/12   5/320
PAUWELA MAUI     0207      77                N/A    12/12  10/340
HILO             NOT AVBL
KANEOHE BAY BUOY 0206      77                N/A     8/12   7/360
HANALEI KAUAI    0301      77                N/A    13/13  10/340
KAHULUI HARBOR   0300   71 76   10/  8/ 10 1014.8R
HONOLULU HARBOR  0300   73 77  250/  5/  8 1014.9R
KILO NALU        NOT AVBL
HILO HARBOR      0300   76 76   40/  9/ 10 1013.9R
MOKUOLOE         0200   71 77   30/  5/  7 1014.5R
NAWILIWILI       0300   71 78   40/ 11/ 14 1014.7R
WHOTS BUOY       NOT AVBL
BUOY 51028       NOT AVBL
$$

......................KEY........................................
  SKY/WX - SKY CONDITIONS/PRESENT WEATHER
  TMP    - TEMPERATURE IN FAHRENHEIT
  DWPT   - DEWPOINT IN FAHRENHEIT
  RH     - RELATIVE HUMIDITY IN PERCENT
  WIND   - DIRECTION AND SPEED /MPH FOR ISLANDS...KTS FOR BUOYS/
  PRES   - MEAN SEA LEVEL PRESSURE IN INCHES OF HG
  VSB    - VISIBILITY IN MILES
  HX     - HEAT INDEX
  WCI    - WIND CHILL INDEX
  VRB    - VARIABLE WIND DIRECTION
  N/A    - NOT AVAILABLE



USA.gov is the U.S. government's official web portal to all federal, state and local government web resources and services.